Regional Weather Roundup
Issued by NWS Midland/Odessa, TX

Skip options and go directly to product.
Home | Oldest Version | Previous Version | Current Version | All | Text Only | Save Text | Print | Product List | Glossary Off

Skip product version selection by date and time.   

527
ASUS44 KMAF 261010
RWRMAF
MIDLAND AREA WEATHER ROUNDUP
NATIONAL WEATHER SERVICE MIDLAND TX
500 AM CDT TUE JUL 26 2016

...IN SOUTHWEST TEXAS AND SOUTHEAST NEW MEXICO...

CITY           SKY/WX    TMP DP  RH WIND       PRES   REMARKS
ALPINE         CLEAR     71  54  55 W3        30.17S
ANDREWS        FAIR      76  60  57 NE12G17   30.09F
ARTESIA        MOCLDY    73  63  68 NW16      30.16S
BIG SPRING     CLOUDY    80  65  61 N5        30.07R
CARLSBAD       CLEAR     75  61  61 NW16      30.11R
DRYDEN           N/A     79  66  64 N8        29.97R
FORT STOCKTON  PTCLDY    78  59  51 S7        30.02R
GUAD PASS      CLEAR     72  55  55 NE23      30.21R
HOBBS          CLOUDY    72  61  68 N9        30.13F
MARFA          CLEAR     66  54  65 CALM      30.16R
MIDLAND AIRPK  MOCLDY    81  63  53 NE6       30.07R
MIDLAND INTL   CLOUDY    81  63  54 N7        30.05R
ODESSA         LGT RAIN  78  65  63 E12       30.07R
PECOS          CLEAR     79  58  48 NE5       30.00R
PRESIDIO       FAIR      84  57  39 NE6       29.98R
SEMINOLE       CLOUDY    73  60  65 NE6       30.12S
SNYDER           N/A     76  66  71 W5        30.05R
WINK           CLOUDY    82  60  47 NE17G26   30.03R
$$
...OTHER STATIONS IN TEXAS...

CITY           SKY/WX    TMP DP  RH WIND       PRES   REMARKS
ABILENE        CLEAR     75  67  76 CALM      29.99S
AMARILLO       CLEAR     68  59  73 NW6       30.12F
AUSTIN         CLOUDY    76  75  97 E3        29.93S
BROWNSVILLE    PTCLDY    82  77  84 S9        29.87R
CORPUS CHRISTI CLOUDY    79  77  94 CALM      29.88R
DALLAS FTW     MOCLDY    77  71  82 SE3       29.94F
DEL RIO        CLOUDY    79  69  71 E8        29.91R
EL PASO        MOCLDY    80  57  45 N22G29    30.09R
HOUSTON INT    CLOUDY    78  76  93 N3        29.92S
LUBBOCK        MOCLDY    73  61  65 N6        30.10F
SAN ANGELO     CLEAR     73  65  75 CALM      29.98S
SAN ANTONIO    CLOUDY    75  72  90 CALM      29.93F
WACO           CLOUDY    74  72  93 E3        29.95R
WICHITA FALLS  NOT AVBL
$$
...OTHER LOCATIONS IN NEW MEXICO...

CITY           SKY/WX    TMP DP  RH WIND       PRES   REMARKS
ALAMAGORDO     LGT RAIN  79  55  44 NE5G17    30.15R
ALBUQUERQUE    CLOUDY    72  57  59 E14       30.25S
CANNON AFB     CLOUDY    69  61  75 W12       30.18S
CLOVIS         PTCLDY    66  57  72 W9        30.17S
HOLLOMAN AFB   CLOUDY    75  57  52 N20       30.13R
ROSWELL        PTCLDY    71  61  70 N5        30.18R
RUIDOSO        LGT RAIN  63  54  72 S6        30.39F
SANTA FE       CLOUDY    63  57  81 SE6       30.33S
TRUTH OR CONSE CLOUDY    73  60  63 NE12      30.19R
TUCUMCARI      CLOUDY    68  63  84 NW5       30.19R
$$

USA.gov is the U.S. government's official web portal to all federal, state and local government web resources and services.